Weather History for LICJ - December, 2013

Change the Weather History Date:

Sunday, December 29, 2013

  Actual Average Record
Temperature  
Mean Temperature 54 °F -  
Max Temperature 61 °F 59 °F 64 °F (2006)
Min Temperature 48 °F 50 °F 46 °F (1998)
Degree Days  
Heating Degree Days 10    
Growing Degree Days 4 (Base 50)    
Moisture  
Dew Point 48 °F    
Average Humidity 73    
Maximum Humidity 87    
Minimum Humidity 52    
Precipitation  
Precipitation 0.00 in 0.09 in - ()
Sea Level Pressure  
Sea Level Pressure 30.11 in    
Wind  
Wind Speed 5 mph ()    
Max Wind Speed 10 mph    
Max Gust Speed -    
Visibility 8.0 miles    
Events      
Averages and records for this station are not official NWS values.
T = Trace of Precipitation, MM = Missing Value Source: Averaged Metar Reports

Daily Weather History Graph

Daily Weather History Graph

Search for Another Location

Airport or City:

Trip Planner

Search our weather history database for the weather conditions in past years. The results will help you decide how hot, cold, wet, or windy it might be!

Date:

Astronomy

Dec. 29, 2013 Rise Set
Actual Time 7:23 AM CET 4:55 PM CET
Civil Twilight 6:54 AM CET 5:25 PM CET
Nautical Twilight 6:20 AM CET 5:58 PM CET
Astronomical Twilight 5:48 AM CET 6:30 PM CET
Moon 3:49 AM CET (12/29) 2:18 PM CET (12/29)
Length of Visible Light 10h 31m
Length of Day
9h 32m
Waning Crescent, 13% of the Moon is Illuminated
Dec 29
Waning Crescent
Jan 1
New
Jan 8
First Quarter
Jan 16
Full
Jan 24
Last Quarter

Hourly Weather History & Observations

Time (CET) Temp. Dew Point Humidity Pressure Visibility Wind Dir Wind Speed Gust Speed Precip Events Conditions
12:20 AM 50.0 °F 46.4 °F 87% 30.09 in - South 6.9 mph - N/A   Clear
12:50 AM 51.8 °F 46.4 °F 82% 30.09 in - SE 1.2 mph - N/A   Clear
1:00 AM 52 °F 47 °F 76% 30.12 in 12 mi ENE 1.2 mph - -  
1:20 AM 51.8 °F 46.4 °F 82% 30.09 in - WSW 3.5 mph - N/A   Clear
1:50 AM 48.2 °F 44.6 °F 87% 30.09 in - SSW 8.1 mph - N/A   Clear
2:20 AM 50.0 °F 46.4 °F 87% 30.09 in - SSW 9.2 mph - N/A   Clear
2:50 AM 51.8 °F 46.4 °F 82% 30.09 in - South 9.2 mph - N/A   Clear
3:20 AM 50.0 °F 44.6 °F 82% 30.09 in - South 6.9 mph - N/A   Clear
3:50 AM 51.8 °F 46.4 °F 82% 30.09 in - SSW 6.9 mph - N/A   Clear
4:00 AM 52 °F 46 °F 73% 30.12 in 12 mi South 2.3 mph - -  
4:20 AM 51.8 °F 44.6 °F 76% 30.09 in - SSW 6.9 mph - N/A   Clear
4:50 AM 51.8 °F 42.8 °F 71% 30.09 in - South 8.1 mph - N/A   Clear
5:20 AM 51.8 °F 42.8 °F 71% 30.09 in - South 8.1 mph - N/A   Clear
5:50 AM 51.8 °F 42.8 °F 71% 30.09 in - SSE 6.9 mph - N/A   Clear
6:20 AM 51.8 °F 42.8 °F 71% 30.09 in - South 2.3 mph - N/A   Clear
6:50 AM 55.4 °F 46.4 °F 72% 30.09 in - WSW 3.5 mph - N/A   Clear
7:00 AM 54 °F 45 °F 64% 30.14 in 12 mi West 3.5 mph - -  
7:20 AM 51.8 °F 42.8 °F 71% 30.09 in - SW 9.2 mph - N/A   Clear
7:50 AM 50.0 °F 42.8 °F 76% 30.09 in - South 8.1 mph - N/A   Clear
8:20 AM 53.6 °F 44.6 °F 72% 30.12 in 6.2 mi South 6.9 mph - N/A   Partly Cloudy
8:50 AM 53.6 °F 44.6 °F 72% 30.12 in 6.2 mi SSE 6.9 mph - N/A   Partly Cloudy
9:20 AM 57.2 °F 46.4 °F 67% 30.12 in - NE 1.2 mph - N/A   Clear
9:50 AM 59.0 °F 46.4 °F 63% 30.12 in - NNW 1.2 mph - N/A   Clear
10:00 AM 59 °F 46 °F 52% 30.16 in 12 mi South 2.3 mph - -  
10:20 AM 59.0 °F 46.4 °F 63% 30.12 in - NNE 2.3 mph - N/A   Clear
10:50 AM 59.0 °F 46.4 °F 63% 30.15 in - NNE 3.5 mph - N/A   Clear
11:20 AM 59.0 °F 46.4 °F 63% 30.12 in 6.2 mi Calm Calm - N/A   Mostly Cloudy
11:50 AM 59.0 °F 46.4 °F 63% 30.12 in 6.2 mi ENE 4.6 mph - N/A   Mostly Cloudy
12:20 PM 59.0 °F 46.4 °F 63% 30.12 in 6.2 mi ENE 2.3 mph - N/A   Mostly Cloudy
12:50 PM 60.8 °F 48.2 °F 63% 30.12 in 6.2 mi SE 2.3 mph - N/A   Mostly Cloudy
1:00 PM 60 °F 49 °F 58% 30.14 in 17 mi ENE 2.3 mph - -   Mostly Cloudy
1:20 PM 60.8 °F 51.8 °F 72% 30.09 in 6.2 mi SSW 10.4 mph - N/A   Mostly Cloudy
1:50 PM 60.8 °F 50.0 °F 68% 30.09 in 6.2 mi SE 2.3 mph - N/A   Mostly Cloudy
2:20 PM 60.8 °F 51.8 °F 72% 30.09 in 6.2 mi SSW 9.2 mph - N/A   Mostly Cloudy
2:50 PM 60.8 °F 51.8 °F 72% 30.09 in 6.2 mi SSW 8.1 mph - N/A   Scattered Clouds
3:20 PM 59.0 °F 48.2 °F 67% 30.09 in 6.2 mi East 8.1 mph - N/A   Mostly Cloudy
3:50 PM 59.0 °F 48.2 °F 67% 30.12 in 6.2 mi ENE 6.9 mph - N/A   Mostly Cloudy
4:00 PM 59 °F 49 °F 60% 30.13 in 17 mi East 5.8 mph - -   Mostly Cloudy
4:20 PM 59.0 °F 48.2 °F 67% 30.12 in 6.2 mi East 3.5 mph - N/A   Scattered Clouds
4:50 PM 59.0 °F 48.2 °F 67% 30.12 in 6.2 mi ESE 1.2 mph - N/A   Scattered Clouds
5:20 PM 59.0 °F 50.0 °F 72% 30.12 in 6.2 mi SSW 3.5 mph - N/A   Scattered Clouds
5:50 PM 59.0 °F 51.8 °F 77% 30.12 in 6.2 mi SSW 4.6 mph - N/A   Scattered Clouds
6:20 PM 59.0 °F 51.8 °F 77% 30.12 in 6.2 mi South 5.8 mph - N/A   Scattered Clouds
6:50 PM 57.2 °F 50.0 °F 77% 30.12 in 6.2 mi ESE 2.3 mph - N/A   Scattered Clouds
7:00 PM 58 °F 50 °F 67% 30.16 in 17 mi ESE 3.5 mph - -   Mostly Cloudy
7:20 PM 57.2 °F 50.0 °F 77% 30.12 in 6.2 mi SE 2.3 mph - N/A   Scattered Clouds
7:50 PM 59.0 °F 50.0 °F 72% 30.12 in 6.2 mi South 3.5 mph - N/A   Scattered Clouds
8:20 PM 59.0 °F 51.8 °F 77% 30.15 in 6.2 mi WSW 1.2 mph - N/A   Scattered Clouds
8:50 PM 57.2 °F 50.0 °F 77% 30.12 in 6.2 mi SSW 3.5 mph - N/A   Scattered Clouds
9:20 PM 57.2 °F 51.8 °F 82% 30.15 in 6.2 mi SSW 4.6 mph - N/A   Scattered Clouds
9:50 PM 57.2 °F 51.8 °F 82% 30.12 in 6.2 mi SSW 4.6 mph - N/A   Scattered Clouds
10:00 PM 57 °F 51 °F 74% 30.16 in 17 mi SE 3.5 mph - -   Mostly Cloudy
10:20 PM 57.2 °F 51.8 °F 82% 30.15 in 6.2 mi East 3.5 mph - N/A   Scattered Clouds
10:50 PM 59.0 °F 51.8 °F 77% 30.15 in 6.2 mi North 3.5 mph - N/A   Scattered Clouds
11:20 PM 55.4 °F 50.0 °F 82% 30.12 in 6.2 mi ENE 8.1 mph - N/A   Partly Cloudy
11:50 PM 57.2 °F 50.0 °F 77% 30.12 in 6.2 mi NNE 2.3 mph - N/A   Partly Cloudy